Regional Weather Roundup
Issued by NWS Green Bay, WI

Home | Current Version | Previous Version | Graphics & Text | Print | Product List | Glossary Off
Versions: 1 2 3 4 5 6 7 8 9 10 11 12 13 14 15 16 17 18 19 20 21 22 23 24 25 26 27 28 29 30 31 32 33 34 35 36 37 38 39 40 41 42 43 44 45 46 47 48 49 50

886
ASUS43 KGRB 300811
RWRGRB

NORTH-CENTRAL AND NORTHEAST WISCONSIN REGIONAL WEATHER ROUNDUP
NATIONAL WEATHER SERVICE GREEN BAY WI
300 AM CDT THU MAR 30 2017

WIZ005-009-010>012-018-019-300900-
NORTH CENTRAL WISCONSIN

CITY           SKY/WX    TMP DP  RH WIND       PRES   REMARKS
IRONWOOD       CLOUDY    36  27  69 NE3       30.10F
MANITOWISH WTR CLOUDY    34  23  63 SE6       30.10R
ARBOR VITAE    CLOUDY    37  25  63 CALM      30.08F
EAGLE RIVER    CLOUDY    33  22  65 E5        30.10R
LAND O LAKES   CLOUDY    34  26  71 SE5       30.11F
RHINELANDER    CLOUDY    35  24  64 NE7       30.08F
PHILLIPS       CLOUDY    36  26  68 E5        30.08S
ANTIGO         CLOUDY    32  29  86 NE6       30.08S
TOMAHAWK       CLOUDY    34  24  68 NE3       30.09S
MERRILL        CLOUDY    35  27  74 E5        30.09S
$$

WIZ013-073-300900-
NORTHEAST WISCONSIN

CITY           SKY/WX    TMP DP  RH WIND       PRES   REMARKS
IRON MOUNTAIN  CLOUDY    34  23  64 NE3       30.12F
MARINETTE      LGT RAIN  36  32  85 E8        30.13F
OCONTO         CLOUDY    34  30  85 CALM      30.11F
$$

WIZ017-030-035>037-045-300900-
CENTRAL WISCONSIN

CITY           SKY/WX    TMP DP  RH WIND       PRES   REMARKS
MEDFORD        CLOUDY    33  28  80 E8        30.06F
WAUSAU         FLURRIES  35  29  78 E5        30.07S
MOSINEE        LGT SNOW  32  32 100 NE9       30.07S
MARSHFIELD     CLOUDY    34  32  92 E14       30.03F
WISC RAPIDS    LGT RAIN  34  34 100 E9        30.06F
STEVENS POINT  CLOUDY    32  32 100 E8        30.07S
WAUPACA        LGT RAIN  38  36  92 NE12      30.08S
SHAWANO        CLOUDY    37  30  77 NE9       30.10F
CLINTONVILLE   CLOUDY    34  32  93 E7        30.09S
WAUTOMA        LGT RAIN  36  34  92 E9        30.05F
$$

WIZ038-039-048-051-300900-
FOX VALLEY

CITY           SKY/WX    TMP DP  RH WIND       PRES   REMARKS
NWS GREEN BAY  CLOUDY    35  35 100 NE8       30.09F
APPLETON       RAIN      34  34 100 NE9       30.05F
OSHKOSH        CLOUDY    38  33  82 E9        30.05S
FOND DU LAC    LGT RAIN  39  33  79 NE8       30.04F
$$

WIZ022-050-052-300900-
EAST CENTRAL WISCONSIN

CITY           SKY/WX    TMP DP  RH WIND       PRES   REMARKS
EPHRAIM        CLOUDY    36  31  82 E8        30.12F
WASHINGTON ISL CLOUDY    36  26  67 E9G16     30.14F
STURGEON BAY   CLOUDY    36  33  89 NE6       30.15R
MANITOWOC      CLOUDY    38  32  79 E10       30.08F
SHEBOYGAN      LGT RAIN  38  32  79 E10       30.04F
$$

LMZ563-521-522-541>543-300900-
LAKESHORE

STATION/POSITION TIME  TEMP    WIND        PRES    VSBY  WAVE
                       AIR SEA DIR/SP/G                  HT/PER
                 (UTC) (F)     (DEG/KT/KT) (MB)    (MI)  (FT/S)
SHEBOYGAN LKSHOR 0800   38      80/ 17/ 18 1017.7F
KEWAUNEE LKSHORE 0748   38     120/ 10/ 13 1018.9F
NORTHPORT PIER   0740   36     100/ 11/ 14 1021.3S
CHAMBERS ISLAND  0740   36      60/  8/ 10 1020.0F
MENOMINEE LKSHOR 0748   34      20/ 12/ 13 1019.1F
$$




USA.gov is the U.S. government's official web portal to all federal, state and local government web resources and services.